EW6321 Weather Reports


Display with metric or nautical units.
time (UTC)temp
F
wind
direction
speed
MPH
gust
MPH
rain 1hr
in
rain 24hr
in
rain mn
in
humidity
%
barometer
mb
20190223210911 62 240 4.0 9.0 0.00 0.05 0.01 35 1024.0
20190223210409 63 224 6.0 10.0 0.00 0.05 0.01 38 1024.2
20190223205912 63 203 5.0 10.0 0.00 0.05 0.01 37 1024.1
20190223205409 62 204 5.0 12.0 0.00 0.06 0.01 36 1024.2
20190223204909 62 221 5.0 13.0 0.00 0.06 0.01 37 1024.3
20190223204409 63 259 5.0 13.0 0.00 0.06 0.01 36 1024.4
20190223203909 63 234 5.0 9.0 0.00 0.06 0.01 34 1024.5
20190223203409 64 206 5.0 7.0 0.00 0.06 0.01 34 1024.5
20190223202909 64 227 3.0 6.0 0.00 0.06 0.01 34 1024.6
20190223202408 64 238 3.0 6.0 0.00 0.06 0.01 33 1024.7
20190223201908 64 203 3.0 5.0 0.00 0.06 0.01 33 1024.8
20190223201408 64 180 3.0 6.0 0.00 0.06 0.01 34 1024.8
20190223200909 63 162 3.0 7.0 0.00 0.06 0.01 36 1024.9
20190223200407 63 178 4.0 7.0 0.00 0.06 0.01 33 1025.0
20190223195908 63 154 4.0 5.0 0.00 0.06 0.01 36 1025.1
20190223195408 62 182 5.0 7.0 0.00 0.06 0.01 36 1025.2
20190223194907 63 202 4.0 7.0 0.00 0.06 0.01 38 1025.3
20190223194408 62 169 3.0 6.0 0.00 0.06 0.01 38 1025.4
20190223193907 62 152 4.0 6.0 0.00 0.06 0.01 37 1025.5
20190223193408 62 265 1.0 5.0 0.00 0.06 0.01 39 1025.6
20190223192907 62 213 2.0 6.0 0.00 0.06 0.01 39 1025.6
20190223192406 62 197 2.0 6.0 0.00 0.06 0.01 36 1025.7
20190223191907 61 243 3.0 5.0 0.00 0.06 0.01 40 1025.7
20190223191407 60 238 4.0 5.0 0.00 0.06 0.01 41 1025.7
20190223190907 61 199 4.0 5.0 0.00 0.06 0.01 37 1025.7
20190223190407 60 206 2.0 5.0 0.00 0.06 0.01 42 1025.7
20190223185906 60 169 3.0 5.0 0.00 0.06 0.01 38 1025.8
20190223185407 61 171 2.0 3.0 0.00 0.06 0.01 37 1025.8
20190223184906 62 262 2.0 2.0 0.00 0.06 0.01 38 1025.9
20190223184406 62 331 2.0 2.0 0.00 0.06 0.01 38 1025.8
20190223183907 62 336 1.0 2.0 0.00 0.06 0.01 36 1025.9
20190223183405 62 341 1.0 1.0 0.00 0.06 0.01 38 1026.0
20190223182906 60 3 0.0 3.0 0.00 0.06 0.01 39 1026.0
20190223182405 60 38 1.0 3.0 0.00 0.06 0.01 39 1026.0
20190223181905 60 111 1.0 3.0 0.00 0.06 0.01 40 1026.1
20190223181406 59 116 1.0 2.0 0.00 0.06 0.01 37 1026.1
20190223180904 58 75 1.0 2.0 0.00 0.06 0.01 43 1026.2
20190223180404 0 0.0 0.0 0.00 0.06 0.01 1026.1
20190223175902 0 52 2.0 3.0 0.00 0.06 0.01 1026.2
20190223175401 56 52 2.0 3.0 0.00 0.06 0.01 49 1026.2
20190223174900 56 41 2.0 5.0 0.00 0.06 0.01 49 1026.2
20190223174400 56 28 3.0 5.0 0.00 0.06 0.01 48 1026.2
20190223173901 56 35 1.0 5.0 0.00 0.06 0.01 51 1026.2
20190223173401 55 23 3.0 5.0 0.00 0.06 0.01 51 1026.2
20190223172900 54 354 2.0 5.0 0.00 0.06 0.01 52 1026.2
20190223172400 53 44 2.0 4.0 0.00 0.06 0.01 55 1026.2
20190223171900 53 55 3.0 4.0 0.00 0.06 0.01 55 1026.1
20190223171401 53 54 2.0 5.0 0.00 0.06 0.01 55 1026.2
20190223170900 52 68 2.0 5.0 0.00 0.06 0.01 55 1026.1
20190223170400 52 23 3.0 5.0 0.00 0.06 0.01 56 1026.1
20190223165900 51 49 2.0 4.0 0.00 0.06 0.01 57 1026.0
20190223165359 51 59 2.0 6.0 0.00 0.06 0.01 59 1026.0
20190223164900 50 49 3.0 6.0 0.00 0.06 0.01 59 1026.0
20190223164400 49 37 3.0 5.0 0.00 0.06 0.01 61 1025.9
20190223163859 49 107 3.0 6.0 0.00 0.06 0.01 60 1026.1
20190223163359 49 20 4.0 6.0 0.00 0.06 0.01 60 1026.0
20190223162859 48 7 2.0 5.0 0.00 0.06 0.01 64 1025.9
20190223162359 48 41 3.0 5.0 0.00 0.06 0.01 64 1025.9
20190223161859 47 51 2.0 5.0 0.00 0.06 0.01 65 1025.9
20190223161359 46 7 2.0 5.0 0.00 0.06 0.01 67 1025.9
20190223160858 46 317 2.0 4.0 0.00 0.06 0.01 67 1025.8
20190223160400 46 11 2.0 5.0 0.00 0.06 0.01 67 1025.8
20190223155858 46 334 2.0 5.0 0.00 0.06 0.01 66 1025.8
20190223155358 45 278 2.0 3.0 0.00 0.06 0.01 68 1025.7
20190223154858 45 30 1.0 6.0 0.00 0.06 0.01 69 1025.6
20190223154358 44 89 3.0 6.0 0.00 0.06 0.01 70 1025.5
20190223153858 43 358 2.0 3.0 0.00 0.06 0.01 72 1025.5
20190223153357 0 0.0 0.0 0.00 0.06 0.01 1025.4
20190223152856 41 233 1.0 1.0 0.00 0.06 0.01 77 1025.4
20190223152354 41 233 1.0 3.0 0.00 0.06 0.01 77 1025.3
20190223151855 41 302 1.0 3.0 0.00 0.06 0.01 77 1025.3
20190223151354 0 0.0 0.0 0.00 0.06 0.01 1025.2
20190223150853 39 312 0.0 0.0 0.00 0.06 0.01 79 1025.1
20190223150352 39 312 0.0 0.0 0.00 0.06 0.01 79 1025.1
20190223145851 39 313 0.0 2.0 0.00 0.06 0.01 79 1025.1
20190223145352 39 314 1.0 2.0 0.00 0.06 0.01 79 1025.2
20190223144852 39 42 0.0 3.0 0.00 0.06 0.01 79 1025.1
20190223144351 39 42 1.0 5.0 0.00 0.06 0.01 78 1025.1
20190223143851 39 51 3.0 5.0 0.00 0.06 0.01 78 1025.0
20190223143351 39 66 3.0 5.0 0.00 0.06 0.01 78 1025.0
20190223142851 39 39 3.0 5.0 0.00 0.06 0.01 78 1024.9
20190223142351 39 133 2.0 5.0 0.00 0.06 0.01 77 1025.0
20190223141851 39 41 3.0 5.0 0.00 0.06 0.01 77 1024.9
20190223141350 39 38 4.0 5.0 0.00 0.06 0.01 77 1024.9
20190223140851 39 28 2.0 4.0 0.00 0.06 0.01 77 1024.9
20190223140350 39 28 2.0 4.0 0.00 0.06 0.01 77 1024.8
20190223135850 39 61 2.0 5.0 0.00 0.06 0.01 77 1024.8
20190223135349 39 61 2.0 5.0 0.00 0.06 0.01 77 1024.8
20190223134849 40 41 2.0 6.0 0.00 0.06 0.01 76 1024.7
20190223134349 40 52 4.0 6.0 0.00 0.06 0.01 76 1024.7
20190223133849 40 55 4.0 5.0 0.00 0.06 0.01 76 1024.6
20190223133349 39 68 4.0 5.0 0.00 0.06 0.01 77 1024.6
20190223132848 39 61 3.0 6.0 0.00 0.06 0.01 78 1024.5
20190223132348 39 350 2.0 6.0 0.00 0.06 0.01 79 1024.5
20190223131849 39 354 2.0 5.0 0.00 0.06 0.01 78 1024.5
20190223131348 39 52 1.0 4.0 0.00 0.06 0.01 78 1024.6
20190223130848 39 4 2.0 4.0 0.00 0.06 0.01 78 1024.5
20190223130349 39 31 2.0 4.0 0.00 0.06 0.01 78 1024.5
20190223125847 39 354 2.0 3.0 0.00 0.06 0.01 78 1024.4
20190223125348 39 39 0.0 4.0 0.00 0.06 0.01 77 1024.5
20190223124847 40 39 2.0 5.0 0.00 0.06 0.01 76 1024.3
20190223124348 40 330 1.0 5.0 0.00 0.06 0.01 76 1024.3
20190223123848 40 345 2.0 4.0 0.00 0.06 0.01 76 1024.3
20190223123347 40 340 0.0 3.0 0.00 0.06 0.01 76 1024.3
20190223122848 40 72 2.0 2.0 0.00 0.06 0.01 76 1024.2
20190223122348 40 0 0.0 2.0 0.00 0.06 0.01 76 1024.2
20190223121847 40 217 0.0 3.0 0.00 0.06 0.01 76 1024.1
20190223121347 40 193 2.0 3.0 0.00 0.06 0.01 76 1024.2
20190223120846 40 0 0.0 3.0 0.00 0.06 0.01 76 1023.9
20190223120347 41 11 1.0 4.0 0.00 0.06 0.01 76 1024.1
20190223115847 40 49 2.0 4.0 0.00 0.06 0.01 76 1024.0
20190223115346 40 298 2.0 4.0 0.00 0.06 0.01 76 1024.1
20190223114848 40 358 1.0 4.0 0.00 0.06 0.01 76 1023.9
20190223114347 41 283 0.0 3.0 0.00 0.06 0.01 75 1024.0
20190223113848 41 240 1.0 2.0 0.00 0.06 0.01 75 1024.0
20190223113346 0 0.0 0.0 0.00 0.06 0.01 1023.9
20190223112846 0 0.0 0.0 0.00 0.06 0.01 1023.9
20190223112344 41 48 2.0 4.0 0.00 0.06 0.01 77 1023.8
20190223111844 41 48 2.0 4.0 0.00 0.06 0.01 77 1023.8
20190223111343 41 0 2.0 5.0 0.00 0.06 0.01 77 1023.8
20190223110843 41 350 2.0 5.0 0.00 0.06 0.01 77 1023.7
20190223110342 41 30 2.0 4.0 0.01 0.06 0.01 78 1023.6
20190223105842 40 58 2.0 4.0 0.01 0.06 0.01 78 1023.6
20190223105342 40 355 2.0 5.0 0.01 0.06 0.01 78 1023.5
20190223104842 40 0 2.0 5.0 0.01 0.06 0.01 77 1023.5
20190223104342 41 268 1.0 4.0 0.01 0.06 0.01 77 1023.6
20190223103841 41 351 2.0 6.0 0.01 0.06 0.01 77 1023.6
20190223103342 41 336 3.0 6.0 0.01 0.06 0.01 76 1023.5
20190223102842 41 353 3.0 5.0 0.01 0.06 0.01 76 1023.5
20190223102341 41 329 2.0 4.0 0.01 0.06 0.01 76 1023.5
20190223101841 41 51 2.0 5.0 0.01 0.06 0.01 76 1023.4
20190223101341 41 10 3.0 6.0 0.01 0.06 0.01 76 1023.4
20190223100841 42 331 2.0 6.0 0.01 0.06 0.01 76 1023.4
20190223100341 42 327 4.0 6.0 0.00 0.05 0.00 76 1023.4
20190223095841 42 333 4.0 6.0 0.00 0.05 0.00 76 1023.4
20190223095341 42 337 3.0 6.0 0.00 0.05 0.00 76 1023.5
20190223094840 42 338 2.0 6.0 0.00 0.05 0.00 76 1023.5
20190223094340 42 337 4.0 6.0 0.00 0.05 0.00 75 1023.5
20190223093841 42 350 4.0 7.0 0.00 0.05 0.00 75 1023.4
20190223093340 42 353 4.0 7.0 0.00 0.05 0.00 75 1023.4
20190223092840 42 358 2.0 3.0 0.00 0.05 0.00 75 1023.5
20190223092340 42 336 3.0 5.0 0.00 0.05 0.00 76 1023.5
20190223091840 42 331 1.0 6.0 0.00 0.05 0.00 76 1023.4
20190223091340 42 333 4.0 6.0 0.00 0.05 0.00 75 1023.4
20190223090840 42 350 4.0 6.0 0.00 0.05 0.00 76 1023.3
20190223090340 42 347 3.0 5.0 0.00 0.05 0.00 75 1023.3
20190223085839 42 334 3.0 4.0 0.00 0.05 0.00 74 1023.2
20190223085339 43 324 2.0 4.0 0.00 0.05 0.00 74 1023.1
20190223084839 43 323 3.0 6.0 0.00 0.05 0.00 75 1023.2
20190223084339 43 330 3.0 6.0 0.00 0.05 0.00 75 1023.0
20190223083839 42 337 3.0 5.0 0.00 0.05 0.00 75 1023.0
20190223083340 42 330 3.0 5.0 0.00 0.05 0.00 75 1022.9
20190223082839 42 345 1.0 3.0 0.00 0.05 0.00 75 1022.6
20190223082339 42 348 1.0 3.0 0.00 0.05 0.00 75 1022.7
20190223081838 43 13 2.0 4.0 0.00 0.05 0.00 75 1022.7
20190223081340 43 0 2.0 4.0 0.00 0.05 0.00 74 1022.6
20190223080838 43 21 0.0 3.0 0.00 0.05 0.00 74 1022.6
20190223080339 44 44 2.0 3.0 0.00 0.05 0.00 72 1022.5
20190223075838 44 59 2.0 5.0 0.00 0.05 0.05 72 1022.5
20190223075338 44 344 3.0 5.0 0.00 0.05 0.05 72 1022.6
20190223074838 44 355 4.0 7.0 0.01 0.05 0.05 71 1022.5
20190223074338 44 341 4.0 7.0 0.01 0.05 0.05 72 1022.5
20190223073838 44 354 4.0 7.0 0.01 0.05 0.05 73 1022.5
20190223073337 44 333 2.0 6.0 0.01 0.05 0.05 73 1022.4
20190223072837 44 343 4.0 6.0 0.01 0.05 0.05 73 1022.3
20190223072337 44 354 4.0 6.0 0.01 0.05 0.05 73 1022.3
20190223071837 44 354 5.0 6.0 0.01 0.05 0.05 73 1022.3
20190223071337 44 343 2.0 5.0 0.01 0.05 0.05 73 1022.3
20190223070837 44 340 3.0 5.0 0.01 0.05 0.05 72 1022.3
20190223070336 44 340 2.0 3.0 0.01 0.05 0.05 72 1022.1
20190223065836 44 338 2.0 4.0 0.01 0.05 0.05 72 1022.2
20190223065336 44 0 3.0 5.0 0.01 0.05 0.05 72 1022.2
20190223064835 44 338 3.0 5.0 0.00 0.04 0.04 72 1022.2
20190223064336 44 333 1.0 3.0 0.00 0.04 0.04 72 1022.1
20190223063836 44 358 0.0 3.0 0.00 0.04 0.04 72 1022.2
20190223063334 44 337 0.0 4.0 0.00 0.04 0.04 71 1022.1
20190223062834 44 350 1.0 4.0 0.00 0.04 0.04 71 1022.0
20190223062334 45 30 3.0 4.0 0.00 0.04 0.04 71 1021.9
20190223061833 45 32 3.0 4.0 0.00 0.04 0.04 71 1021.9
20190223061333 45 39 2.0 4.0 0.00 0.04 0.04 71 1021.8
20190223060832 45 44 3.0 4.0 0.00 0.04 0.04 71 1021.8
20190223060333 45 41 3.0 4.0 0.00 0.04 0.04 71 1021.8
20190223055832 45 47 3.0 4.0 0.00 0.04 0.04 71 1021.8
20190223055332 45 32 3.0 4.0 0.00 0.05 0.04 72 1021.7
20190223054832 45 38 2.0 5.0 0.00 0.05 0.04 72 1021.7
20190223054332 44 8 2.0 5.0 0.00 0.05 0.04 73 1021.5
20190223053832 44 39 3.0 4.0 0.00 0.05 0.04 73 1021.6
20190223053332 44 48 3.0 5.0 0.00 0.05 0.04 73 1021.5
20190223052831 44 32 3.0 5.0 0.00 0.05 0.04 73 1021.4
20190223052332 44 38 3.0 5.0 0.00 0.05 0.04 73 1021.4
20190223051832 44 8 3.0 5.0 0.00 0.05 0.04 73 1021.3
20190223051332 45 42 3.0 6.0 0.00 0.05 0.04 72 1021.3
20190223050831 45 34 3.0 6.0 0.00 0.05 0.04 71 1021.3
20190223050331 45 35 3.0 5.0 0.00 0.05 0.04 70 1021.3
20190223045831 46 39 4.0 5.0 0.00 0.05 0.04 70 1021.3
20190223045331 46 44 3.0 4.0 0.00 0.05 0.04 70 1021.2
20190223044831 46 11 2.0 4.0 0.00 0.05 0.04 69 1021.1
20190223044330 46 16 2.0 4.0 0.00 0.05 0.04 69 1021.2
20190223043830 46 44 2.0 4.0 0.01 0.05 0.04 69 1021.1
20190223043331 46 27 2.0 3.0 0.01 0.05 0.04 69 1021.1
20190223042830 46 30 1.0 4.0 0.01 0.05 0.04 68 1021.1
20190223042330 46 14 3.0 4.0 0.01 0.05 0.04 68 1021.0
20190223041830 47 7 2.0 3.0 0.01 0.05 0.04 66 1021.0
20190223041330 47 0 2.0 4.0 0.01 0.05 0.04 66 1020.9
20190223040830 47 20 3.0 4.0 0.01 0.05 0.04 66 1020.8
20190223040330 47 38 3.0 3.0 0.01 0.05 0.04 65 1020.8
20190223035830 48 58 2.0 3.0 0.01 0.05 0.04 64 1020.8
20190223035329 48 231 2.0 3.0 0.01 0.05 0.04 64 1020.7
20190223034830 48 233 2.0 3.0 0.01 0.05 0.04 63 1020.6
20190223034329 48 234 2.0 3.0 0.01 0.05 0.04 63 1020.6
20190223033829 48 234 2.0 2.0 0.00 0.04 0.03 63 1020.6
20190223033328 0 234 1.0 1.0 0.00 0.04 0.03 1020.5
20190223032827 48 234 1.0 2.0 0.00 0.04 0.03 64 1020.3
20190223032327 48 234 1.0 3.0 0.01 0.04 0.03 64 1020.3
20190223031827 49 234 2.0 3.0 0.01 0.04 0.03 63 1020.3
20190223031327 49 234 2.0 2.0 0.01 0.04 0.03 63 1020.1
20190223030828 49 235 2.0 2.0 0.01 0.04 0.03 64 1020.0
20190223030326 49 235 2.0 2.0 0.01 0.05 0.03 63 1020.1
20190223025826 50 235 1.0 2.0 0.01 0.05 0.03 61 1019.9
20190223025326 50 237 0.0 2.0 0.01 0.05 0.03 61 1019.8
20190223024826 50 237 1.0 3.0 0.01 0.05 0.03 61 1019.8
20190223024326 50 237 1.0 3.0 0.01 0.05 0.03 62 1019.7
20190223023826 50 237 1.0 2.0 0.01 0.05 0.03 61 1019.7
20190223023326 50 237 1.0 2.0 0.01 0.05 0.03 61 1019.5
20190223022826 51 237 0.0 2.0 0.01 0.05 0.03 61 1019.5
20190223022325 51 238 1.0 2.0 0.00 0.04 0.02 62 1019.3
20190223021825 50 238 1.0 3.0 0.00 0.04 0.02 62 1019.3
20190223021326 50 238 2.0 3.0 0.00 0.04 0.02 62 1019.2
20190223020825 50 233 2.0 4.0 0.00 0.04 0.02 62 1019.1
20190223020325 51 227 3.0 4.0 0.00 0.04 0.02 62 1019.0
20190223015825 51 252 2.0 5.0 0.00 0.04 0.02 60 1018.9
20190223015325 51 248 2.0 5.0 0.00 0.04 0.02 60 1018.8
20190223014826 51 244 2.0 6.0 0.00 0.05 0.02 59 1018.8
20190223014324 51 241 3.0 6.0 0.00 0.05 0.02 58 1018.6
20190223013824 52 235 3.0 7.0 0.01 0.06 0.02 56 1018.6
20190223013324 52 226 4.0 7.0 0.01 0.06 0.02 55 1018.4
20190223012825 53 230 5.0 9.0 0.01 0.06 0.02 54 1018.4
20190223012324 53 240 4.0 7.0 0.01 0.06 0.02 53 1018.4
20190223011824 53 226 2.0 6.0 0.01 0.06 0.02 52 1018.3
20190223011324 54 200 3.0 7.0 0.01 0.06 0.02 50 1018.2
20190223010824 54 212 5.0 9.0 0.01 0.06 0.02 51 1018.2
20190223010323 55 240 5.0 9.0 0.01 0.06 0.02 52 1018.0
20190223005822 55 238 4.0 7.0 0.01 0.06 0.02 52 1018.0
20190223005323 55 206 5.0 7.0 0.01 0.06 0.02 50 1017.9
20190223004824 55 220 3.0 7.0 0.01 0.06 0.02 50 1017.9
20190223004323 55 228 4.0 9.0 0.01 0.06 0.02 48 1017.8
20190223003823 56 224 4.0 10.0 0.00 0.05 0.01 47 1017.8
20190223003323 56 243 4.0 10.0 0.00 0.05 0.01 46 1017.7
20190223002822 56 234 4.0 7.0 0.00 0.05 0.01 44 1017.6
20190223002323 56 223 5.0 10.0 0.00 0.05 0.01 46 1017.5
20190223001823 56 247 6.0 12.0 0.00 0.05 0.01 45 1017.5
20190223001323 56 235 6.0 12.0 0.00 0.05 0.01 49 1017.4
20190223000822 56 231 4.0 11.0 0.00 0.05 0.01 48 1017.3
20190223000323 56 243 5.0 14.0 0.00 0.05 0.01 47 1017.2
20190222235822 56 216 7.0 14.0 0.00 0.05 0.01 47 1017.2
20190222235322 56 206 6.0 12.0 0.00 0.05 0.01 48 1017.2
20190222234822 57 268 5.0 11.0 0.00 0.05 0.01 47 1017.1
20190222234322 57 217 5.0 10.0 0.00 0.05 0.01 49 1017.1
20190222233822 57 257 4.0 12.0 0.00 0.05 0.01 53 1017.0
20190222233322 57 209 6.0 12.0 0.00 0.05 0.01 47 1017.0
20190222232821 58 251 5.0 11.0 0.00 0.05 0.01 50 1016.8
20190222232321 57 265 4.0 11.0 0.00 0.05 0.01 50 1016.8
20190222231822 57 244 5.0 11.0 0.00 0.05 0.01 50 1016.8
20190222231321 57 244 4.0 11.0 0.00 0.05 0.01 52 1016.8
20190222230821 56 219 4.0 13.0 0.00 0.05 0.01 53 1016.6
20190222230321 56 233 6.0 15.0 0.00 0.05 0.01 54 1016.5
20190222225821 57 257 9.0 15.0 0.00 0.05 0.01 55 1016.4
20190222225321 57 228 6.0 14.0 0.00 0.05 0.01 51 1016.3
20190222224821 57 272 4.0 13.0 0.00 0.05 0.01 54 1016.3
20190222224321 57 190 8.0 13.0 0.00 0.05 0.01 54 1016.2
20190222223820 57 224 6.0 12.0 0.00 0.05 0.01 53 1016.1
20190222223320 57 219 7.0 12.0 0.00 0.05 0.01 51 1016.1
20190222222820 57 274 5.0 11.0 0.00 0.05 0.01 54 1016.0
20190222222320 58 230 6.0 11.0 0.00 0.05 0.01 53 1016.0
20190222221820 58 227 7.0 10.0 0.00 0.05 0.01 52 1016.0
20190222221319 58 217 4.0 10.0 0.00 0.05 0.01 54 1015.9
20190222220820 58 235 5.0 10.0 0.00 0.05 0.01 55 1015.9
20190222220320 58 228 5.0 10.0 0.00 0.05 0.01 58 1016.0
20190222215819 56 276 7.0 14.0 0.01 0.05 0.01 55 1015.8
20190222215319 57 226 7.0 14.0 0.01 0.05 0.01 56 1015.8
20190222214820 56 231 6.0 12.0 0.01 0.05 0.01 56 1015.9
20190222214319 56 183 8.0 12.0 0.01 0.05 0.01 55 1015.8
20190222213819 57 237 6.0 12.0 0.01 0.05 0.01 59 1015.9
20190222213319 57 241 8.0 12.0 0.01 0.05 0.01 57 1015.8
20190222212818 57 199 6.0 12.0 0.01 0.05 0.01 59 1015.7
20190222212318 56 230 7.0 11.0 0.01 0.05 0.01 59 1015.7
20190222211819 56 213 5.0 12.0 0.01 0.05 0.01 58 1015.8
20190222211319 56 212 6.0 14.0 0.01 0.05 0.01 60 1015.7